Regional Weather Roundup
Issued by NWS Upton, NY

Current Version | Previous Version | Text Only | Print | Product List | Glossary Off
Versions: 1 2 3 4 5 6 7 8 9 10 11 12 13 14 15 16 17 18 19 20 21 22 23 24 25 26 27 28 29 30 31 32 33 34 35 36 37 38 39
000 ASUS41 KOKX 211705 RWROKX REGIONAL WEATHER ROUNDUP NATIONAL WEATHER SERVICE NEW YORK NY 100 PM EDT TUE OCT 21 2014 NOTE: "FAIR" INDICATES FEW OR NO CLOUDS BELOW 12,000 FEET WITH NO SIGNIFICANT WEATHER AND/OR OBSTRUCTIONS TO VISIBILITY. NYZ071-072-176-178-NJZ106-104-211800- NEW YORK CITY METRO AREA CITY SKY/WX TMP DP RH WIND PRES REMARKS CENTRAL PARK PTSUNNY 64 49 57 CALM 29.88F LAGUARDIA APRT PTSUNNY 66 48 52 SE9 29.85F KENNEDY INTL LGT RAIN 63 53 70 E7 29.87F NEWARK/LIBERTY PTSUNNY 65 51 60 E7 29.85F BRNX BOT. GARD N/A 63 46 55 E9 29.89R TETERBORO PTSUNNY 66 48 52 CALM 29.85F $$ NYZ177-179-078>081-211800- LONG ISLAND NEW YORK CITY SKY/WX TMP DP RH WIND PRES REMARKS FARMINGDALE PTSUNNY 67 50 54 SE10 29.87F ISLIP MOSUNNY 67 52 58 SE13 29.86F SHIRLEY SUNNY 68 52 56 SE13 29.88F WESTHAMPTON SUNNY 67 53 61 SE10 29.89F MONTAUK POINT N/A 67 57 70 VRB3 29.91F $$ NYZ052-065-067-211800- HUDSON VALLEY CITY SKY/WX TMP DP RH WIND PRES REMARKS WHITE PLAINS PTSUNNY 63 49 60 SE9G17 29.86F NEWBURGH LGT RAIN 52 52 100 N6 29.91F MONTGOMERY CLOUDY 52 49 89 NE9 29.88F POUGHKEEPSIE CLOUDY 53 49 86 N6 29.90F ALBANY LGT RAIN 52 49 89 CALM 29.92F FOG $$ NJZ001-105-106-008-010-013-015-019>022-104-211800- NEW JERSEY CITY SKY/WX TMP DP RH WIND PRES REMARKS NEWARK/LIBERTY PTSUNNY 65 51 60 E7 29.85F TETERBORO PTSUNNY 66 48 52 CALM 29.85F CALDWELL CLOUDY 62 48 60 E6 29.86F MORRISTOWN PTSUNNY 63 52 67 NE3 29.86F SOMERVILLE MOSUNNY 66 48 52 CALM 29.83F SUSSEX CLOUDY 58 49 72 NE8 29.88F ANDOVER N/A 60 50 69 N3 29.86F TRENTON SUNNY 65 49 56 SE3 29.84F MILLVILLE MOSUNNY 68 51 54 CALM 29.84F ATLANTIC CITY CLOUDY 66 53 63 W5 29.84F WRIGHTSTOWN PTSUNNY 66 53 63 NW6 29.82F TOMS RIVER PTSUNNY 63 57 82 CALM 29.84F BELMAR CLOUDY 61 52 72 CALM 29.85F THUNDER $$ PAZ047>061-062-071-211800- EASTERN PENNSYLVANIA CITY SKY/WX TMP DP RH WIND PRES REMARKS PHILADELPHIA MOSUNNY 67 49 52 CALM 29.84F ALLENTOWN MOSUNNY 64 49 57 VRB3 29.85F SCRANTON CLOUDY 59 46 62 CALM 29.85F $$ CTZ002-004>006-009-010-012-RIZ004-006-007-MAZ004-011-015-211800- SOUTHERN NEW ENGLAND IN CT CITY SKY/WX TMP DP RH WIND PRES REMARKS BRADLEY INTL PTSUNNY 61 47 59 NW7 29.90F HARTFORD PTSUNNY 64 50 60 VRB7 29.90F DANBURY CLOUDY 63 30 28 VRB7 29.89F WTRBRY/OXFORD PTSUNNY 63 48 59 SE9 29.91S BRIDGEPORT MOSUNNY 67 51 56 E9 29.88F MERIDEN CLOUDY 64 48 56 N5 29.89F NEW HAVEN PTSUNNY 69 54 58 SE8 29.89F CHESTER FAIR 64 48 55 E5 29.90F GROTON MOSUNNY 64 52 64 S8 29.89F WILLIMANTIC MOSUNNY 67 47 48 VRB5 29.90F IN RI CITY SKY/WX TMP DP RH WIND PRES REMARKS PROVIDENCE LGT RAIN 61 57 87 S8 29.92F BLOCK ISLAND PTSUNNY 63 55 77 SE8 29.91F WESTERLY MOSUNNY 65 53 65 SW7 29.91F IN MA CITY SKY/WX TMP DP RH WIND PRES REMARKS BOSTON PTSUNNY 62 56 80 E7 29.93F WORCESTER CLOUDY 57 49 74 VRB3 29.93F WESTFIELD CLOUDY 56 46 69 NW8 29.92F PROVINCETOWN CLOUDY 57 54 88 SE10 29.94F NANTUCKET CLOUDY 60 56 86 E16G24 29.92F $$ ANZ330-335-338-340-345-350-353-355-211800- COASTAL MARINE OBSERVATIONS STATION/POSITION TIME SKY/WX TEMP WIND PRES VSBY WAVE AIR SEA DIR/SP/G HT/PER (UTC) (F) (DEG/KT/KT) (MB) (MI) (FT/S) NY HARB ENTRANCE NOT AVBL 4S FIRE IS 1700 64 N/A 3/ 6 20S FIRE ISLAND 1700 64 64 120/ 12/ 14 1011.1 3/ 6 23SW MTP 1700 N/A 4/ 7 HUDSON CANYON 1700 66 66 180/ 6/ 8 1011.6 3/ 6 EXECUTION ROCKS 1700 64 63 140/ 4/ 14 N/A WESTERN LI SOUND 1700 65 130/ 8/ 14 N/A 1 CENTRAL LI SOUND 1600 62 64 90/ 8/ 10 N/A 1 EASTERN LI SOUND 1600 66 64 120/ 2/ 4 N/A ROBBINS REEF 1600 63 140/ 8/ 9 1010.0 $$ >>>>>>>>>>>>>>>>>>>>>>>>>>>> KEY <<<<<<<<<<<<<<<<<<<<<<<<<<< > < > SKY/WX - SKY CONDITION/PRESENT WEATHER < > TMP - TEMPERATURE IN FAHRENHEIT < > DP - DEWPOINT IN FAHRENHEIT < > RH - RELATIVE HUMIDITY IN PERCENT < > WIND - DIRECTION AND SPEED IN MPH < > PRES - MEAN SEA LEVEL PRESSURE IN INCHES OF HG < > WCI - WIND CHILL INDEX < > VSB - VISIBILITY IN MILES < > HX - HEAT INDEX < > TC - TEMPERATURE IN CELSIUS < > VRB - VARIABLE WIND DIRECTION < > < >>>>>>>>>>>>>>>>>>>>>>>>>>>> KEY <<<<<<<<<<<<<<<<<<<<<<<<<<<

USA.gov is the U.S. government's official web portal to all federal, state and local government web resources and services.